TimeCST,TemperatureF,Dew PointF,Humidity,Sea Level PressureIn,VisibilityMPH,Wind Direction,Wind SpeedMPH,Gust SpeedMPH,PrecipitationIn,Events,Conditions,WindDirDegrees,DateUTC
12:10 AM,30.7,21.6,69,30.12,10.0,West,9.2,-,N/A,,Overcast,280,2012-11-26 06:10:00
12:30 AM,31.1,21.9,69,30.11,10.0,West,8.1,-,N/A,,Overcast,280,2012-11-26 06:30:00
12:50 AM,31.1,22.1,69,30.12,10.0,West,9.2,-,N/A,,Overcast,280,2012-11-26 06:50:00
1:10 AM,31.5,21.9,68,30.11,10.0,WNW,13.8,17.3,N/A,,Overcast,290,2012-11-26 07:10:00
1:30 AM,30.0,16.5,57,30.12,10.0,NW,17.3,23.0,N/A,,Mostly Cloudy,310,2012-11-26 07:30:00
1:50 AM,28.4,15.6,59,30.14,10.0,NW,16.1,19.6,N/A,,Clear,310,2012-11-26 07:50:00
2:10 AM,27.9,15.4,60,30.14,10.0,NW,15.0,-,N/A,,Clear,310,2012-11-26 08:10:00
2:30 AM,27.5,15.3,60,30.15,10.0,NW,13.8,-,N/A,,Scattered Clouds,310,2012-11-26 08:30:00
2:50 AM,27.0,14.9,60,30.16,10.0,NW,11.5,18.4,N/A,,Mostly Cloudy,310,2012-11-26 08:50:00
3:10 AM,27.0,13.6,57,30.16,10.0,NW,13.8,-,N/A,,Mostly Cloudy,320,2012-11-26 09:10:00
3:30 AM,26.4,11.3,53,30.16,10.0,NW,15.0,-,N/A,,Scattered Clouds,320,2012-11-26 09:30:00
3:50 AM,25.7,10.4,52,30.17,10.0,NW,12.7,-,N/A,,Clear,320,2012-11-26 09:50:00
4:10 AM,25.3,9.7,52,30.17,10.0,NW,13.8,-,N/A,,Clear,320,2012-11-26 10:10:00
4:29 AM,24.6,8.6,51,30.18,10.0,NW,15.0,20.7,N/A,,Clear,320,2012-11-26 10:29:00
4:50 AM,23.7,8.6,53,30.19,10.0,NW,12.7,-,N/A,,Clear,320,2012-11-26 10:50:00
5:10 AM,23.0,8.1,53,30.20,10.0,NW,13.8,-,N/A,,Clear,320,2012-11-26 11:10:00
5:30 AM,21.9,7.5,54,30.19,10.0,NW,12.7,18.4,N/A,,Clear,320,2012-11-26 11:30:00
5:50 AM,21.2,7.5,56,30.19,10.0,NW,10.4,-,N/A,,Clear,320,2012-11-26 11:50:00
6:10 AM,21.0,7.3,56,30.21,10.0,NW,11.5,-,N/A,,Clear,320,2012-11-26 12:10:00
6:30 AM,20.7,7.5,57,30.22,10.0,NW,10.4,-,N/A,,Clear,320,2012-11-26 12:30:00
6:50 AM,20.3,7.9,59,30.23,10.0,NNW,11.5,16.1,N/A,,Clear,330,2012-11-26 12:50:00
7:10 AM,19.4,8.2,62,30.24,10.0,NNW,12.7,-,N/A,,Clear,330,2012-11-26 13:10:00
7:30 AM,19.8,9.3,64,30.24,10.0,NNW,10.4,-,N/A,,Mostly Cloudy,340,2012-11-26 13:30:00
7:50 AM,20.3,10.2,65,30.26,10.0,NNW,11.5,-,N/A,,Overcast,340,2012-11-26 13:50:00
8:10 AM,20.1,10.6,67,30.27,10.0,NNW,9.2,-,N/A,,Overcast,330,2012-11-26 14:10:00
8:29 AM,21.6,11.5,65,30.28,10.0,NNW,11.5,-,N/A,,Overcast,340,2012-11-26 14:29:00
8:50 AM,21.0,10.9,65,30.30,10.0,NNW,11.5,17.3,N/A,,Overcast,330,2012-11-26 14:50:00
9:10 AM,21.4,11.3,65,30.30,10.0,North,13.8,-,N/A,Snow,Light Snow,350,2012-11-26 15:10:00
9:30 AM,21.9,11.5,64,30.31,10.0,North,13.8,-,N/A,,Overcast,350,2012-11-26 15:30:00
9:50 AM,21.9,11.3,64,30.32,10.0,NNW,13.8,-,N/A,Snow,Light Snow,340,2012-11-26 15:50:00
10:10 AM,22.5,11.3,62,30.32,10.0,North,11.5,-,N/A,,Mostly Cloudy,360,2012-11-26 16:10:00
10:30 AM,23.0,11.3,61,30.33,10.0,North,11.5,-,N/A,,Mostly Cloudy,350,2012-11-26 16:30:00
10:50 AM,23.9,11.5,59,30.33,10.0,NNW,10.4,-,N/A,,Mostly Cloudy,330,2012-11-26 16:50:00
11:10 AM,23.9,11.3,59,30.33,10.0,NNW,11.5,-,N/A,,Scattered Clouds,330,2012-11-26 17:10:00
11:29 AM,23.9,10.8,57,30.33,10.0,NNW,11.5,-,N/A,,Scattered Clouds,340,2012-11-26 17:29:00
11:50 AM,23.4,10.4,58,30.34,10.0,NW,11.5,-,N/A,,Scattered Clouds,320,2012-11-26 17:50:00
12:10 PM,23.9,10.4,56,30.33,10.0,NNW,12.7,-,N/A,,Clear,330,2012-11-26 18:10:00
12:30 PM,23.5,9.9,56,30.33,10.0,NNW,9.2,-,N/A,,Clear,330,2012-11-26 18:30:00
12:50 PM,24.4,9.5,53,30.32,10.0,NNW,10.4,-,N/A,,Clear,330,2012-11-26 18:50:00
1:10 PM,25.2,8.6,50,30.32,10.0,NNW,12.7,-,N/A,,Clear,330,2012-11-26 19:10:00
1:30 PM,26.4,8.2,46,30.32,10.0,NNW,11.5,-,N/A,,Clear,340,2012-11-26 19:30:00
1:50 PM,26.6,7.7,45,30.32,10.0,NNW,12.7,-,N/A,,Clear,340,2012-11-26 19:50:00
2:10 PM,26.6,7.5,45,30.32,10.0,NNW,10.4,16.1,N/A,,Clear,330,2012-11-26 20:10:00
2:30 PM,26.6,7.3,44,30.32,10.0,NNW,10.4,-,N/A,,Clear,330,2012-11-26 20:30:00
2:50 PM,26.8,7.2,44,30.32,10.0,North,10.4,-,N/A,,Clear,350,2012-11-26 20:50:00
3:10 PM,27.0,7.3,44,30.33,10.0,NW,12.7,-,N/A,,Clear,310,2012-11-26 21:10:00
3:30 PM,26.6,7.5,45,30.33,10.0,NNW,6.9,-,N/A,,Clear,340,2012-11-26 21:30:00
3:49 PM,26.2,7.2,44,30.33,10.0,NW,10.4,-,N/A,,Clear,320,2012-11-26 21:49:00
4:10 PM,25.5,7.0,45,30.34,10.0,NW,6.9,-,N/A,,Clear,320,2012-11-26 22:10:00
4:49 PM,23.5,7.5,50,30.34,10.0,NNW,6.9,-,N/A,,Clear,330,2012-11-26 22:49:00
5:10 PM,22.5,7.3,52,30.34,10.0,NW,5.8,-,N/A,,Clear,320,2012-11-26 23:10:00
5:30 PM,21.7,7.3,54,30.35,10.0,NW,6.9,-,N/A,,Clear,320,2012-11-26 23:30:00
5:50 PM,21.9,7.0,53,30.36,10.0,NNW,9.2,-,N/A,,Clear,330,2012-11-26 23:50:00
6:10 PM,21.2,6.8,54,30.36,10.0,NNW,8.1,-,N/A,,Clear,330,2012-11-27 00:10:00
6:30 PM,21.0,6.6,54,30.36,10.0,NNW,9.2,-,N/A,,Clear,330,2012-11-27 00:30:00
6:50 PM,20.3,6.6,56,30.36,10.0,NNW,6.9,-,N/A,,Clear,330,2012-11-27 00:50:00
7:10 PM,19.4,6.4,57,30.36,10.0,NW,6.9,-,N/A,,Clear,320,2012-11-27 01:10:00
7:30 PM,18.9,6.1,58,30.37,10.0,NW,5.8,-,N/A,,Clear,320,2012-11-27 01:30:00
7:50 PM,18.5,5.7,58,30.37,10.0,NW,4.6,-,N/A,,Clear,310,2012-11-27 01:50:00
8:10 PM,18.0,5.4,58,30.37,10.0,NW,4.6,-,N/A,,Clear,310,2012-11-27 02:10:00
8:30 PM,17.6,5.2,58,30.37,10.0,WNW,5.8,-,N/A,,Clear,300,2012-11-27 02:30:00
8:50 PM,17.4,5.0,58,30.37,10.0,West,6.9,-,N/A,,Clear,280,2012-11-27 02:50:00
9:30 PM,17.1,5.4,60,30.38,10.0,West,4.6,-,N/A,,Clear,260,2012-11-27 03:30:00
9:50 PM,17.2,5.0,59,30.38,10.0,West,5.8,-,N/A,,Clear,260,2012-11-27 03:50:00
10:10 PM,16.3,5.0,61,30.38,10.0,West,5.8,-,N/A,,Clear,280,2012-11-27 04:10:00
10:30 PM,16.5,5.7,63,30.37,10.0,SW,4.6,-,N/A,,Clear,220,2012-11-27 04:30:00
10:50 PM,16.7,5.4,61,30.37,10.0,SW,4.6,-,N/A,,Clear,230,2012-11-27 04:50:00
11:10 PM,16.5,5.0,61,30.36,10.0,SW,3.5,-,N/A,,Clear,230,2012-11-27 05:10:00
11:30 PM,15.8,5.0,62,30.36,10.0,SW,5.8,-,N/A,,Clear,230,2012-11-27 05:30:00
11:50 PM,15.8,5.4,63,30.35,10.0,SW,4.6,-,N/A,,Clear,230,2012-11-27 05:50:00